Simultaneous Nadir Overpasses (SNOs) Predictions

Prediction of SNOs between GOES-15 and NPP Satellite Orbit:

Table of predicted SNOs for the next 14.0 days since TLE Epoch: 7/29/2016
Index Date Time (GOES-15) GOES-15 Lat,Lon NPP Lat,Lon Distance(km) Time Diff (sec)
1 07/30/2016 22:40:57 0.24,-134.96 -0.69,-139.01 461.63 80
2 07/31/2016 22:24:52 0.23,-134.92 0.36,-134.48 50.96 80
3 08/03/2016 10:25:13 -0.24,-134.81 -0.13,-135.20 45.68 80
4 08/04/2016 10:09:09 -0.24,-134.77 -1.18,-130.68 466.71 80
5 08/05/2016 22:28:24 0.26,-134.72 -0.02,-135.98 143.44 80
6 08/06/2016 22:12:18 0.25,-134.68 0.97,-131.44 368.72 80
7 08/08/2016 10:31:26 -0.26,-134.60 0.20,-136.71 240.74 80
8 08/09/2016 10:15:20 -0.26,-134.55 -0.79,-132.17 271.00 80
9 08/10/2016 22:34:36
